Regional Weather Roundup
Issued by NWS

Home | Current Version | Previous Version | Graphics & Text | Print | Product List | Glossary On
Versions: 1 2 3 4 5 6 7 8 9 10 11 12 13 14 15 16 17 18 19 20 21 22 23 24 25 26 27 28 29 30 31 32 33 34 35 36 37 38 39 40 41 42 43 44 45 46 47 48 49 50
056
ASUS45 KCYS 242310
RWRWY

WYOMING REGIONAL WEATHER ROUNDUP
NATIONAL WEATHER SERVICE CHEYENNE WY
500 PM MDT WED AUG 24 2016

NOTE:  "FAIR" INDICATES FEW OR NO CLOUDS BELOW 12,000 FEET
WITH NO SIGNIFICANT WEATHER AND/OR OBSTRUCTIONS TO VISIBILITY.

WYZ001-250000-
YELLOWSTONE NATIONAL PARK

CITY           SKY/WX    TMP DP  RH WIND       PRES   REMARKS
LK YELLOWSTONE   N/A     42  40  92 VRB5      30.38R
W YELLOWSTONE  NOT AVBL

$$
WYZ002>013-054>058-071-098>099-250000-
NORTHERN WYOMING

CITY           SKY/WX    TMP DP  RH WIND       PRES   REMARKS
JACKSON        MOSUNNY   70  19  14 S8        30.17S
CODY           CLOUDY    57  41  54 N13G22    30.29R
GREYBULL       FAIR      73  39  29 NW29G37   30.17R HAZE
WORLAND        PTSUNNY   75  36  24 N12       30.16S
SHERIDAN       CLOUDY    64  42  44 NW10      30.24S
BUFFALO        CLOUDY    62  41  46 N16G25    30.28R
GILLETTE       PTSUNNY   68  42  38 N8        30.21R
HULETT         CLOUDY    68  39  34 N14       30.21F
NEWCASTLE      FAIR      72  36  26 W12G18    30.17F

$$
WYZ014>020-022>026-101>103-250000-
CENTRAL WYOMING

CITY           SKY/WX    TMP DP  RH WIND       PRES   REMARKS
BIG PINEY      FAIR      73  13  10 VRB5      30.18F
PINEDALE       FAIR      68  14  12 NE5       30.21S
DUBOIS         MOCLDY    61  28  29 E14       30.26R
LANDER         PTSUNNY   71  35  26 NE5       30.17F
RIVERTON       FAIR      71  33  24 E9G18     30.19S
CASPER         FAIR      73  35  25 NE14G25   30.19R
DOUGLAS        PTSUNNY   74  34  23 SE13      30.18R

$$
WYZ021-027>030-104>119-250000-
SOUTHERN WYOMING

CITY           SKY/WX    TMP DP  RH WIND       PRES   REMARKS
EVANSTON       FAIR      71   7   8 W18G29    30.24S
FORT BRIDGER   FAIR      74   4   6 W21G29    30.25R
ROCK SPRINGS   NOT AVBL
DIXON          FAIR      73  29  19 SW5       30.19S
RAWLINS        PTSUNNY   71  31  22 NE9       30.19S
SARATOGA       FAIR      63  43  48 E9G18     30.24F
LARAMIE        CLOUDY    56  47  71 S10       30.28R
CHEYENNE       PTSUNNY   64  45  49 SW16      30.25R
TORRINGTON     FAIR      72  45  37 E16       30.14R
PINE BLUFFS    FAIR      70  39  32 S17G24    30.19R

$$




USA.gov is the U.S. government's official web portal to all federal, state and local government web resources and services.